This is the latest recevied weather packets stored in our database for station/object KC2G. If no packets are shown the sender has not sent any weather packets the latest 10 day(s).
| Time | Temp. | Humidity | Pressure | Rain* | Wind** | Luminosity | Snow |
|---|---|---|---|---|---|---|---|
| 1777617955 | 8.33° C | 68% | 1011.8 hPa | 0 mm | 0 m/s | - | - |
| 1777617055 | 8.33° C | 69% | 1011.7 hPa | 0 mm | 0.45 m/s, 256° | - | - |
| 1777616155 | 8.89° C | 69% | 1011.8 hPa | 0 mm | 0 m/s | - | - |
| 1777615256 | 8.89° C | 70% | 1011.6 hPa | 0 mm | 0 m/s | - | - |
| 1777614355 | 8.89° C | 75% | 1011.6 hPa | 0 mm | 0.45 m/s, 186° | - | - |
| 1777613455 | 8.89° C | 74% | 1011.5 hPa | 0 mm | 0 m/s | - | - |
| 1777612627 | 9.44° C | 71% | 1011.5 hPa | 0 mm | 0 m/s | - | - |
| 1777612554 | 9.44° C | 71% | 1011.5 hPa | 0 mm | 0 m/s | - | - |
| 1777611655 | 9.44° C | 71% | 1011.4 hPa | 0 mm | 0 m/s | - | - |
| 1777610755 | 10° C | 73% | 1011.2 hPa | 0 mm | 0 m/s | - | - |
| 1777609855 | 10.56° C | 69% | 1011.2 hPa | 0 mm | 0.45 m/s, 312° | - | - |
| 1777609050 | 10.56° C | 71% | 1011.2 hPa | 0 mm | 0 m/s | - | - |
| 1777608955 | 10.56° C | 71% | 1011.2 hPa | 0 mm | 0.45 m/s, 327° | - | - |
| 1777608055 | 10.56° C | 71% | 1011.2 hPa | 0 mm | 0 m/s | - | - |
| 1777607155 | 10.56° C | 71% | 1011.2 hPa | 0 mm | 0 m/s | - | - |
| 1777606255 | 10.56° C | 73% | 1011.1 hPa | 0 mm | 0 m/s | - | - |
| 1777605355 | 10.56° C | 72% | 1011 hPa | 0 mm | 0.45 m/s, 254° | - | - |
| 1777604455 | 11.11° C | 73% | 1010.9 hPa | 0 mm | 0 m/s | - | - |
| 1777603555 | 10.56° C | 72% | 1010.9 hPa | 0 mm | 0.45 m/s, 291° | - | - |
| 1777602656 | 10° C | 77% | 1010.9 hPa | 0 mm | 0.45 m/s, 282° | - | - |
| 1777601754 | 10.56° C | 80% | 1010.8 hPa | 0 mm | 0 m/s | - | - |
| 1777601379 | 10.56° C | 81% | 1010.4 hPa | 0 mm | 0 m/s | - | - |
| 1777600855 | 10.56° C | 80% | 1010.6 hPa | 0 mm | 0 m/s | - | - |
| 1777599955 | 10.56° C | 81% | 1010.4 hPa | 0 mm | 0 m/s | - | - |
| 1777599055 | 10° C | 84% | 1010.3 hPa | 0 mm | 0 m/s | - | - |
* Rain latest hour (hover to see other rain measurements)
** Current wind speed in m/s (hover to see current wind gust speed)